Location: Newark
(45.4422°N, 16.2769°E)
Time: 21:24:29
(UTC+00:00)

S-56A Canister/Altair - Pass Details

Date: 21 December 2019
Orbit: 634 x 2498 km, 38.9° (Epoch: 20 January)

Event Time Altitude Azimuth Distance (km) Brightness Sun altitude
Rises 03:56:38 0° 193° (SSW) 4,295 11.3 -26.1°
Reaches altitude 10° 04:00:04 10° 178° (S) 3,618 11.0 -25.5°
Maximum altitude 04:06:57 22° 132° (SE) 3,279 11.3 -24.3°
Drops below altitude 10° 04:15:38 10° 89° (E) 4,707 12.6 -22.8°
Sets 04:20:55 0° 77° (ENE) 5,952 13.2 -21.9°
